Year,Month,Day,Hour,Minute,Value (Times are PST for temperature in C)
2012,05,19,00,00,8.60
2012,05,19,00,01,8.60
2012,05,19,00,02,8.60
2012,05,19,00,03,8.60
2012,05,19,00,04,8.60
2012,05,19,00,05,8.60
2012,05,19,00,06,8.60
2012,05,19,00,07,8.60
2012,05,19,00,08,8.60
2012,05,19,00,09,8.60
2012,05,19,00,10,8.50
2012,05,19,00,11,8.50
2012,05,19,00,12,8.50
2012,05,19,00,13,8.50
2012,05,19,00,14,8.40
2012,05,19,00,15,8.40
2012,05,19,00,16,8.30
2012,05,19,00,17,8.30
2012,05,19,00,18,8.20
2012,05,19,00,19,8.20
2012,05,19,00,20,8.10
2012,05,19,00,21,8.00
2012,05,19,00,22,8.00
2012,05,19,00,23,7.90
2012,05,19,00,24,7.90
2012,05,19,00,25,7.80
2012,05,19,00,26,7.80
2012,05,19,00,27,7.70
2012,05,19,00,28,7.70
2012,05,19,00,29,7.60
2012,05,19,00,30,7.60
2012,05,19,00,31,7.50
2012,05,19,00,32,7.50
2012,05,19,00,33,7.40
2012,05,19,00,34,7.40
2012,05,19,00,35,7.30
2012,05,19,00,36,7.30
2012,05,19,00,37,7.30
2012,05,19,00,38,7.30
2012,05,19,00,39,7.20
2012,05,19,00,40,7.10
2012,05,19,00,41,7.10
2012,05,19,00,42,7.00
2012,05,19,00,43,7.00
2012,05,19,00,44,6.90
2012,05,19,00,45,6.90
2012,05,19,00,46,6.80
2012,05,19,00,47,6.80
2012,05,19,00,48,6.80
2012,05,19,00,49,6.80
2012,05,19,00,50,6.70
2012,05,19,00,51,6.70
2012,05,19,00,52,6.60
2012,05,19,00,53,6.60
2012,05,19,00,54,6.60
2012,05,19,00,55,6.60
2012,05,19,00,56,6.60
2012,05,19,00,57,6.50
2012,05,19,00,58,6.40
2012,05,19,00,59,6.40
2012,05,19,01,00,6.40
2012,05,19,01,01,6.40
2012,05,19,01,02,6.40
2012,05,19,01,03,6.40
2012,05,19,01,04,6.40
2012,05,19,01,05,6.40
2012,05,19,01,06,6.40
2012,05,19,01,07,6.40
2012,05,19,01,08,6.40
2012,05,19,01,09,6.40
2012,05,19,03,42,4.20
2012,05,19,03,43,4.20
2012,05,19,03,44,4.20
2012,05,19,03,45,4.20
2012,05,19,03,46,4.20
2012,05,19,03,47,4.20
2012,05,19,03,48,4.20
2012,05,19,03,49,4.20
2012,05,19,03,50,4.10
2012,05,19,03,51,4.10
2012,05,19,03,52,4.10
2012,05,19,03,53,4.10
2012,05,19,03,54,4.10
2012,05,19,03,55,4.10
2012,05,19,03,56,4.10
2012,05,19,03,57,4.10
2012,05,19,03,58,4.10
2012,05,19,03,59,4.10
2012,05,19,04,00,4.10
2012,05,19,04,01,4.10
2012,05,19,04,02,4.10
2012,05,19,04,03,4.10
2012,05,19,04,04,4.10
2012,05,19,04,05,4.10
2012,05,19,04,06,4.10
2012,05,19,04,07,4.10
2012,05,19,04,08,4.10
2012,05,19,04,09,4.10
2012,05,19,04,10,4.10
2012,05,19,04,11,4.10
2012,05,19,04,12,4.10
2012,05,19,04,13,4.10
2012,05,19,04,14,4.10
2012,05,19,04,15,4.10
2012,05,19,04,16,4.10
2012,05,19,04,17,4.10
2012,05,19,04,18,4.10
2012,05,19,04,19,4.10
2012,05,19,04,20,4.10
2012,05,19,04,21,4.10
2012,05,19,04,22,4.10
2012,05,19,04,23,4.10
2012,05,19,04,24,4.10
2012,05,19,04,25,4.10
2012,05,19,04,26,4.10
2012,05,19,04,27,4.10
2012,05,19,04,28,4.10
2012,05,19,04,29,4.00
2012,05,19,04,30,4.00
2012,05,19,04,31,4.00
2012,05,19,04,32,4.00
2012,05,19,04,33,4.00
2012,05,19,04,34,4.00
2012,05,19,04,35,4.00
2012,05,19,04,36,4.00
2012,05,19,04,37,4.00
2012,05,19,04,38,4.00
2012,05,19,04,39,4.00
2012,05,19,04,40,3.90
2012,05,19,04,41,3.90
2012,05,19,04,42,3.90
2012,05,19,04,43,3.90
2012,05,19,04,44,3.90
2012,05,19,04,45,3.90
2012,05,19,04,46,3.80
2012,05,19,04,47,3.80
2012,05,19,04,48,3.80
2012,05,19,04,49,3.80
2012,05,19,04,50,3.80
2012,05,19,04,51,3.80
2012,05,19,04,52,3.80
2012,05,19,04,53,3.80
2012,05,19,04,54,3.80
2012,05,19,04,55,3.80
2012,05,19,04,56,3.70
2012,05,19,04,57,3.70
2012,05,19,04,58,3.70
2012,05,19,04,59,3.70
2012,05,19,05,00,3.70
2012,05,19,05,01,3.60
2012,05,19,05,02,3.60
2012,05,19,05,03,3.60
2012,05,19,05,04,3.60
2012,05,19,05,05,3.60
2012,05,19,05,06,3.60
2012,05,19,05,07,3.60
2012,05,19,05,08,3.60
2012,05,19,05,09,3.70
2012,05,19,05,10,3.70
2012,05,19,05,11,3.70
2012,05,19,05,12,3.70
2012,05,19,05,13,3.80
2012,05,19,05,14,3.80
2012,05,19,05,15,3.70
2012,05,19,05,16,3.70
2012,05,19,05,17,3.70
2012,05,19,05,18,3.70
2012,05,19,05,19,3.60
2012,05,19,05,20,3.60
2012,05,19,05,21,3.60
2012,05,19,05,22,3.60
2012,05,19,05,23,3.60
2012,05,19,05,24,3.60
2012,05,19,05,25,3.60
2012,05,19,05,26,3.60
2012,05,19,05,27,3.60
2012,05,19,05,28,3.60
2012,05,19,05,29,3.60
2012,05,19,05,30,3.60
2012,05,19,05,31,3.60
2012,05,19,05,32,3.60
2012,05,19,05,33,3.60
2012,05,19,05,34,3.50
2012,05,19,05,35,3.50
2012,05,19,05,36,3.50
2012,05,19,05,37,3.50
2012,05,19,05,38,3.50
2012,05,19,05,39,3.50
2012,05,19,05,40,3.50
2012,05,19,05,41,3.40
2012,05,19,05,42,3.40
2012,05,19,05,43,3.40
2012,05,19,05,44,3.40
2012,05,19,05,45,3.40
2012,05,19,05,46,3.40
2012,05,19,05,47,3.40
2012,05,19,05,48,3.50
2012,05,19,05,49,3.50
2012,05,19,05,50,3.50
2012,05,19,05,51,3.50
2012,05,19,05,52,3.60
2012,05,19,05,53,3.50
2012,05,19,05,54,3.50
2012,05,19,05,55,3.50
2012,05,19,05,56,3.50
2012,05,19,05,57,3.50
2012,05,19,05,58,3.50
2012,05,19,05,59,3.50
2012,05,19,06,00,3.40
2012,05,19,06,01,3.40
2012,05,19,06,02,3.40
2012,05,19,06,03,3.40
2012,05,19,06,04,3.50
2012,05,19,06,05,3.50
2012,05,19,06,06,3.50
2012,05,19,06,07,3.50
2012,05,19,06,08,3.60
2012,05,19,06,09,3.60
2012,05,19,06,10,3.60
2012,05,19,06,11,3.60
2012,05,19,06,12,3.70
2012,05,19,06,13,3.70
2012,05,19,06,14,3.80
2012,05,19,06,15,3.80
2012,05,19,06,16,3.80
2012,05,19,06,17,3.90
2012,05,19,06,18,4.00
2012,05,19,06,19,4.00
2012,05,19,06,20,4.10
2012,05,19,06,21,4.10
2012,05,19,06,22,4.20
2012,05,19,06,23,4.20
2012,05,19,06,24,4.20
2012,05,19,06,25,4.20
2012,05,19,06,26,4.20
2012,05,19,06,27,4.20
2012,05,19,06,28,4.30
2012,05,19,06,29,4.30
2012,05,19,06,30,4.30
2012,05,19,06,31,4.30
2012,05,19,06,32,4.40
2012,05,19,06,33,4.40
2012,05,19,06,34,4.40
2012,05,19,06,35,4.50
2012,05,19,06,36,4.50
2012,05,19,06,37,4.60
2012,05,19,06,38,4.60
2012,05,19,06,39,4.60
2012,05,19,06,40,4.60
2012,05,19,06,41,4.70
2012,05,19,06,42,4.70
2012,05,19,06,43,4.80
2012,05,19,06,44,4.80
2012,05,19,06,45,4.90
2012,05,19,06,46,5.00
2012,05,19,06,47,5.10
2012,05,19,06,48,5.20
2012,05,19,06,49,5.30
2012,05,19,06,50,5.30
2012,05,19,06,51,5.40
2012,05,19,06,52,5.40
2012,05,19,06,53,5.50
2012,05,19,06,54,5.50
2012,05,19,06,55,5.60
2012,05,19,06,56,5.60
2012,05,19,06,57,5.70
2012,05,19,06,58,5.70
2012,05,19,06,59,5.80
2012,05,19,07,00,5.90
2012,05,19,07,01,6.00
2012,05,19,07,02,6.00
2012,05,19,07,03,6.10
2012,05,19,07,04,6.20
2012,05,19,07,05,6.20
2012,05,19,07,06,6.20
2012,05,19,07,07,6.30
2012,05,19,07,08,6.30
2012,05,19,07,09,6.30
2012,05,19,07,10,6.30
2012,05,19,07,11,6.30
2012,05,19,07,12,6.30
2012,05,19,07,13,6.30
2012,05,19,07,14,6.30
2012,05,19,07,15,6.30
2012,05,19,07,16,6.30
2012,05,19,07,17,6.30
2012,05,19,07,18,6.40
2012,05,19,07,19,6.40
2012,05,19,07,20,6.40
2012,05,19,07,21,6.50
2012,05,19,07,22,6.60
2012,05,19,07,23,6.60
2012,05,19,07,24,6.60
2012,05,19,07,25,6.60
2012,05,19,07,26,6.70
2012,05,19,07,27,6.80
2012,05,19,07,28,6.80
2012,05,19,07,29,6.80
2012,05,19,07,30,6.80
2012,05,19,07,31,6.80
2012,05,19,07,32,6.80
2012,05,19,07,33,6.80
2012,05,19,07,34,6.80
2012,05,19,07,35,6.80
2012,05,19,07,36,6.80
2012,05,19,07,37,6.80
2012,05,19,07,38,6.80
2012,05,19,09,02,11.80
2012,05,19,09,03,11.80
2012,05,19,09,04,11.80
2012,05,19,09,05,11.80
2012,05,19,09,06,11.80
2012,05,19,09,07,11.80
2012,05,19,09,08,11.80
2012,05,19,09,09,11.80
2012,05,19,09,10,11.90
2012,05,19,09,11,11.90
2012,05,19,09,12,11.90
2012,05,19,09,13,12.00
2012,05,19,09,14,12.10
2012,05,19,09,15,12.20
2012,05,19,09,16,12.30
2012,05,19,09,17,12.30
2012,05,19,09,18,12.30
2012,05,19,09,19,12.40
2012,05,19,09,20,12.50
2012,05,19,09,21,12.60
2012,05,19,09,22,12.70
2012,05,19,09,23,12.80
2012,05,19,09,24,12.80
2012,05,19,09,25,12.90
2012,05,19,09,26,13.00
2012,05,19,09,27,13.10
2012,05,19,09,28,13.10
2012,05,19,09,29,13.10
2012,05,19,09,30,13.20
2012,05,19,09,31,13.20
2012,05,19,09,32,13.10
2012,05,19,09,33,13.00
2012,05,19,09,34,12.90
2012,05,19,09,35,12.80
2012,05,19,09,36,12.80
2012,05,19,09,37,12.80
2012,05,19,09,38,12.80
2012,05,19,09,39,12.70
2012,05,19,09,40,12.70
2012,05,19,09,41,12.60
2012,05,19,09,42,12.60
2012,05,19,09,43,12.60
2012,05,19,09,44,12.60
2012,05,19,09,45,12.60
2012,05,19,09,46,12.60
2012,05,19,09,47,12.50
2012,05,19,09,48,12.40
2012,05,19,09,49,12.20
2012,05,19,09,50,12.00
2012,05,19,09,51,11.90
2012,05,19,09,52,11.80
2012,05,19,09,53,11.80
2012,05,19,09,54,11.80
2012,05,19,09,55,11.70
2012,05,19,09,56,11.80
2012,05,19,09,57,11.80
2012,05,19,09,58,11.90
2012,05,19,09,59,11.90
2012,05,19,10,00,12.00
2012,05,19,10,01,12.10
2012,05,19,10,02,12.20
2012,05,19,10,03,12.20
2012,05,19,10,04,12.20
2012,05,19,10,05,12.20
2012,05,19,10,06,12.20
2012,05,19,10,07,12.20
2012,05,19,10,08,12.20
2012,05,19,10,09,12.20
2012,05,19,10,10,12.20
2012,05,19,10,11,12.20
2012,05,19,10,12,12.10
2012,05,19,10,13,12.10
2012,05,19,10,14,12.00
2012,05,19,10,15,12.00
2012,05,19,10,16,12.00
2012,05,19,10,17,12.00
2012,05,19,10,18,12.10
2012,05,19,10,19,12.10
2012,05,19,10,20,12.20
2012,05,19,10,21,12.30
2012,05,19,10,22,12.40
2012,05,19,10,23,12.40
2012,05,19,10,24,12.40
2012,05,19,10,25,12.30
2012,05,19,10,26,12.30
2012,05,19,10,27,12.30
2012,05,19,10,28,12.30
2012,05,19,10,29,12.40
2012,05,19,10,30,12.50
2012,05,19,10,31,12.60
2012,05,19,10,32,12.70
2012,05,19,10,33,12.80
2012,05,19,10,34,12.80
2012,05,19,10,35,12.80
2012,05,19,10,36,12.90
2012,05,19,10,37,12.90
2012,05,19,10,38,12.80
2012,05,19,10,39,12.80
2012,05,19,10,40,12.80
2012,05,19,10,41,12.80
2012,05,19,10,42,12.80
2012,05,19,10,43,12.80
2012,05,19,10,44,12.80
2012,05,19,10,45,12.80
2012,05,19,10,46,12.90
2012,05,19,10,47,13.00
2012,05,19,10,48,13.00
2012,05,19,10,49,12.90
2012,05,19,10,50,12.80
2012,05,19,10,51,12.80
2012,05,19,10,52,12.80
2012,05,19,10,53,12.80
2012,05,19,10,54,12.80
2012,05,19,10,55,12.80
2012,05,19,10,56,12.70
2012,05,19,10,57,12.70
2012,05,19,10,58,12.60
2012,05,19,10,59,12.60
2012,05,19,11,00,12.50
2012,05,19,11,01,12.50
2012,05,19,11,02,12.60
2012,05,19,11,03,12.60
2012,05,19,11,04,12.60
2012,05,19,11,05,12.60
2012,05,19,11,06,12.60
2012,05,19,11,07,12.60
2012,05,19,11,08,12.60
2012,05,19,11,09,12.70
2012,05,19,11,10,12.80
2012,05,19,11,11,12.80
2012,05,19,11,12,12.80
2012,05,19,11,13,12.80
2012,05,19,11,14,12.80
2012,05,19,11,15,12.80
2012,05,19,11,16,12.80
2012,05,19,11,17,12.80
2012,05,19,11,18,12.70
2012,05,19,11,19,12.60
2012,05,19,11,20,12.60
2012,05,19,11,21,12.60
2012,05,19,11,22,12.60
2012,05,19,11,23,12.60
2012,05,19,11,24,12.70
2012,05,19,11,25,12.70
2012,05,19,11,26,12.60
2012,05,19,11,27,12.50
2012,05,19,11,28,12.50
2012,05,19,11,29,12.60
2012,05,19,11,30,12.60
2012,05,19,11,31,12.50
2012,05,19,11,32,12.50
2012,05,19,11,33,12.40
2012,05,19,11,34,12.40
2012,05,19,11,35,12.50
2012,05,19,11,36,12.50
2012,05,19,11,37,12.50
2012,05,19,11,38,12.50
2012,05,19,11,39,12.50
2012,05,19,11,40,12.60
2012,05,19,11,41,12.80
2012,05,19,11,42,12.90
2012,05,19,11,43,13.00
2012,05,19,11,44,13.10
2012,05,19,11,45,13.10
2012,05,19,11,46,13.10
2012,05,19,11,47,13.00
2012,05,19,11,48,13.00
2012,05,19,11,49,13.00
2012,05,19,11,50,13.00
2012,05,19,11,51,13.00
2012,05,19,11,52,13.00
2012,05,19,11,53,13.00
2012,05,19,11,54,13.10
2012,05,19,11,55,13.20
2012,05,19,11,56,13.30
2012,05,19,11,57,13.30
2012,05,19,11,58,13.30
2012,05,19,11,59,13.20
2012,05,19,12,00,13.10
2012,05,19,12,01,13.00
2012,05,19,12,02,13.00
2012,05,19,12,03,12.90
2012,05,19,12,04,12.90
2012,05,19,12,05,12.80
2012,05,19,12,06,12.70
2012,05,19,12,07,12.60
2012,05,19,12,08,12.50
2012,05,19,12,09,12.60
2012,05,19,12,10,12.60
2012,05,19,12,11,12.70
2012,05,19,12,12,12.60
2012,05,19,12,13,12.60
2012,05,19,12,14,12.50
2012,05,19,12,15,12.50
2012,05,19,12,16,12.60
2012,05,19,12,17,12.70
2012,05,19,12,18,12.80
2012,05,19,12,19,12.90
2012,05,19,12,20,12.90
2012,05,19,12,21,12.90
2012,05,19,12,22,12.80
2012,05,19,12,23,12.70
2012,05,19,12,24,12.70
2012,05,19,12,25,12.60
2012,05,19,12,26,12.60
2012,05,19,12,27,12.70
2012,05,19,12,28,12.70
2012,05,19,12,29,12.70
2012,05,19,12,30,12.60
2012,05,19,12,31,12.50
2012,05,19,12,32,12.60
2012,05,19,12,33,12.60
2012,05,19,12,34,12.60
2012,05,19,12,35,12.60
2012,05,19,12,36,12.70
2012,05,19,12,37,12.80
2012,05,19,12,38,13.00
2012,05,19,12,39,13.00
2012,05,19,12,40,13.00
2012,05,19,12,41,13.10
2012,05,19,12,42,13.10
2012,05,19,12,43,13.10
2012,05,19,12,44,13.20
2012,05,19,12,45,13.30
2012,05,19,12,46,13.30
2012,05,19,12,47,13.50
2012,05,19,12,48,13.60
2012,05,19,12,49,13.70
2012,05,19,12,50,13.70
2012,05,19,12,51,13.70
2012,05,19,12,52,13.70
2012,05,19,12,53,13.70
2012,05,19,12,54,13.70
2012,05,19,12,55,13.80
2012,05,19,12,56,13.80
2012,05,19,12,57,13.80
2012,05,19,12,58,13.90
2012,05,19,12,59,14.10
2012,05,19,13,00,14.20
2012,05,19,13,01,14.40
2012,05,19,13,02,14.40
2012,05,19,13,03,14.40
2012,05,19,13,04,14.50
2012,05,19,13,05,14.60
2012,05,19,13,06,14.70
2012,05,19,13,07,14.80
2012,05,19,13,08,14.90
2012,05,19,13,09,14.90
2012,05,19,13,10,14.80
2012,05,19,13,11,14.80
2012,05,19,13,12,14.80
2012,05,19,13,13,14.70
2012,05,19,13,14,14.50
2012,05,19,13,15,14.50
2012,05,19,13,16,14.40
2012,05,19,13,17,14.50
2012,05,19,13,18,14.50
2012,05,19,13,19,14.40
2012,05,19,13,20,14.50
2012,05,19,13,21,14.50
2012,05,19,13,22,14.50
2012,05,19,13,23,14.30
2012,05,19,13,24,14.20
2012,05,19,13,25,14.20
2012,05,19,13,26,14.20
2012,05,19,13,27,14.20
2012,05,19,13,28,14.30
2012,05,19,13,29,14.50
2012,05,19,13,30,14.60
2012,05,19,13,31,14.70
2012,05,19,13,32,14.70
2012,05,19,13,33,14.80
2012,05,19,13,34,14.90
2012,05,19,13,35,15.00
2012,05,19,13,36,15.00
2012,05,19,13,37,15.00
2012,05,19,13,38,15.00
2012,05,19,13,39,15.00
2012,05,19,13,40,15.00
2012,05,19,13,41,15.00
2012,05,19,13,42,14.90
2012,05,19,13,43,14.80
2012,05,19,13,44,14.80
2012,05,19,13,45,14.80
2012,05,19,13,46,14.80
2012,05,19,13,47,14.80
2012,05,19,13,48,14.80
2012,05,19,13,49,14.80
2012,05,19,13,50,14.80
2012,05,19,13,51,14.90
2012,05,19,13,52,14.90
2012,05,19,13,53,14.90
2012,05,19,13,54,14.90
2012,05,19,13,55,14.80
2012,05,19,13,56,14.80
2012,05,19,13,57,14.90
2012,05,19,13,58,14.90
2012,05,19,13,59,14.90
2012,05,19,14,00,14.80
2012,05,19,14,01,14.80
2012,05,19,14,02,14.90
2012,05,19,14,03,15.00
2012,05,19,14,04,14.90
2012,05,19,14,05,14.80
2012,05,19,14,06,14.60
2012,05,19,14,07,14.40
2012,05,19,14,08,14.20
2012,05,19,14,09,14.10
2012,05,19,14,10,14.00
2012,05,19,14,11,13.90
2012,05,19,14,12,13.80
2012,05,19,14,13,13.90
2012,05,19,14,14,14.00
2012,05,19,14,15,14.00
2012,05,19,14,16,14.20
2012,05,19,14,17,14.20
2012,05,19,14,18,14.20
2012,05,19,14,19,14.40
2012,05,19,14,20,14.60
2012,05,19,14,21,14.70
2012,05,19,14,22,14.80
2012,05,19,14,23,14.80
2012,05,19,14,24,14.90
2012,05,19,14,25,15.00
2012,05,19,14,26,15.10
2012,05,19,14,27,15.20
2012,05,19,14,28,15.20
2012,05,19,14,29,15.20
2012,05,19,14,30,15.30
2012,05,19,14,31,15.30
2012,05,19,14,32,15.30
2012,05,19,14,33,15.50
2012,05,19,14,34,15.50
2012,05,19,14,35,15.40
2012,05,19,14,36,15.30
2012,05,19,14,37,15.30
2012,05,19,14,38,15.30
2012,05,19,14,39,15.30
2012,05,19,14,40,15.30
2012,05,19,14,41,15.40
2012,05,19,14,42,15.60
2012,05,19,14,43,15.70
2012,05,19,14,44,15.80
2012,05,19,14,45,15.70
2012,05,19,14,46,15.60
2012,05,19,14,47,15.60
2012,05,19,14,48,15.60
2012,05,19,14,49,15.70
2012,05,19,14,50,15.80
2012,05,19,14,51,15.80
2012,05,19,14,52,15.80
2012,05,19,14,53,15.90
2012,05,19,14,54,16.10
2012,05,19,14,55,16.20
2012,05,19,14,56,16.30
2012,05,19,14,57,16.30
2012,05,19,14,58,16.10
2012,05,19,14,59,15.80
2012,05,19,15,00,15.60
2012,05,19,15,01,15.40
2012,05,19,15,02,15.20
2012,05,19,15,03,15.10
2012,05,19,15,04,15.10
2012,05,19,15,05,15.10
2012,05,19,15,06,15.20
2012,05,19,15,07,15.30
2012,05,19,15,08,15.30
2012,05,19,15,09,15.20
2012,05,19,15,10,15.20
2012,05,19,15,11,15.10
2012,05,19,15,12,15.00
2012,05,19,15,13,15.00
2012,05,19,15,14,15.00
2012,05,19,15,15,15.00
2012,05,19,15,16,14.90
2012,05,19,15,17,14.90
2012,05,19,15,18,14.90
2012,05,19,15,19,15.00
2012,05,19,15,20,15.00
2012,05,19,15,21,15.00
2012,05,19,15,22,15.00
2012,05,19,15,23,15.10
2012,05,19,15,24,15.30
2012,05,19,15,25,15.40
2012,05,19,15,26,15.50
2012,05,19,15,27,15.70
2012,05,19,15,28,15.80
2012,05,19,15,29,16.00
2012,05,19,15,30,16.00
2012,05,19,15,31,15.90
2012,05,19,15,32,15.80
2012,05,19,15,33,15.80
2012,05,19,15,34,15.70
2012,05,19,15,35,15.60
2012,05,19,15,36,15.60
2012,05,19,15,37,15.60
2012,05,19,15,38,15.70
2012,05,19,15,39,15.70
2012,05,19,15,40,15.60
2012,05,19,15,41,15.60
2012,05,19,15,42,15.60
2012,05,19,15,43,15.70
2012,05,19,15,44,15.80
2012,05,19,15,45,15.80
2012,05,19,15,46,15.80
2012,05,19,15,47,15.70
2012,05,19,15,48,15.70
2012,05,19,15,49,15.80
2012,05,19,15,50,15.80
2012,05,19,15,51,15.90
2012,05,19,15,52,16.00
2012,05,19,15,53,16.10
2012,05,19,15,54,16.10
2012,05,19,15,55,16.20
2012,05,19,15,56,16.20
2012,05,19,15,57,16.30
2012,05,19,15,58,16.40
2012,05,19,15,59,16.40
2012,05,19,16,00,16.40
2012,05,19,16,01,16.40
2012,05,19,16,02,16.40
2012,05,19,16,03,16.40
2012,05,19,16,04,16.40
2012,05,19,16,05,16.40
2012,05,19,16,06,16.40
2012,05,19,16,07,16.50
2012,05,19,16,08,16.60
2012,05,19,16,09,16.70
2012,05,19,16,10,16.80
2012,05,19,16,11,17.00
2012,05,19,16,12,17.10
2012,05,19,16,13,17.10
2012,05,19,16,14,17.00
2012,05,19,16,15,16.90
2012,05,19,16,16,16.70
2012,05,19,16,17,16.50
2012,05,19,16,18,16.30
2012,05,19,16,19,16.10
2012,05,19,16,20,16.10
2012,05,19,16,21,16.10
2012,05,19,16,22,16.20
2012,05,19,16,23,16.20
2012,05,19,16,24,16.10
2012,05,19,16,25,16.10
2012,05,19,16,26,16.00
2012,05,19,16,27,15.90
2012,05,19,16,28,15.70
2012,05,19,16,29,15.60
2012,05,19,16,30,15.50
2012,05,19,16,31,15.50
2012,05,19,16,32,15.40
2012,05,19,16,33,15.40
2012,05,19,16,34,15.40
2012,05,19,16,35,15.40
2012,05,19,16,36,15.40
2012,05,19,16,37,15.50
2012,05,19,16,38,15.60
2012,05,19,16,39,15.60
2012,05,19,16,40,15.50
2012,05,19,16,41,15.50
2012,05,19,16,42,15.50
2012,05,19,16,43,15.50
2012,05,19,16,44,15.40
2012,05,19,16,45,15.30
2012,05,19,16,46,15.20
2012,05,19,16,47,15.20
2012,05,19,16,48,15.20
2012,05,19,16,49,15.10
2012,05,19,16,50,15.10
2012,05,19,16,51,15.00
2012,05,19,16,52,15.00
2012,05,19,16,53,15.00
2012,05,19,16,54,14.90
2012,05,19,16,55,14.90
2012,05,19,16,56,14.90
2012,05,19,16,57,14.90
2012,05,19,16,58,15.00
2012,05,19,16,59,15.00
2012,05,19,17,00,15.00
2012,05,19,17,01,14.90
2012,05,19,17,02,15.00
2012,05,19,17,03,15.00
2012,05,19,17,04,15.00
2012,05,19,17,05,14.90
2012,05,19,17,06,14.80
2012,05,19,17,07,14.80
2012,05,19,17,08,14.90
2012,05,19,17,09,14.90
2012,05,19,17,10,14.90
2012,05,19,17,11,14.90
2012,05,19,17,12,14.80
2012,05,19,17,13,14.80
2012,05,19,17,14,14.80
2012,05,19,17,15,14.70
2012,05,19,17,16,14.70
2012,05,19,17,17,14.70
2012,05,19,17,18,14.70
2012,05,19,17,19,14.70
2012,05,19,17,20,14.70
2012,05,19,17,21,14.60
2012,05,19,17,22,14.50
2012,05,19,17,23,14.50
2012,05,19,17,24,14.40
2012,05,19,17,25,14.40
2012,05,19,17,26,14.40
2012,05,19,17,27,14.40
2012,05,19,17,28,14.40
2012,05,19,17,29,14.40
2012,05,19,17,30,14.40
2012,05,19,17,31,14.40
2012,05,19,17,32,14.40
2012,05,19,17,33,14.50
2012,05,19,17,34,14.50
2012,05,19,17,35,14.50
2012,05,19,17,36,14.50
2012,05,19,17,37,14.50
2012,05,19,17,38,14.60
2012,05,19,17,39,14.60
2012,05,19,17,40,14.50
2012,05,19,17,41,14.50
2012,05,19,17,42,14.50
2012,05,19,17,43,14.50
2012,05,19,17,44,14.50
2012,05,19,17,45,14.60
2012,05,19,17,46,14.60
2012,05,19,17,47,14.60
2012,05,19,17,48,14.70
2012,05,19,17,49,14.80
2012,05,19,17,50,14.90
2012,05,19,17,51,15.00
2012,05,19,17,52,15.10
2012,05,19,17,53,15.00
2012,05,19,17,54,15.00
2012,05,19,17,55,15.10
2012,05,19,17,56,15.10
2012,05,19,17,57,15.10
2012,05,19,17,58,15.00
2012,05,19,17,59,15.00
2012,05,19,18,00,15.00
2012,05,19,18,01,15.00
2012,05,19,18,02,15.00
2012,05,19,18,03,15.00
2012,05,19,18,04,15.00
2012,05,19,18,05,15.00
2012,05,19,18,06,15.00
2012,05,19,18,07,15.00
2012,05,19,18,08,14.90
2012,05,19,18,09,14.90
2012,05,19,18,10,14.90
2012,05,19,18,11,14.90
2012,05,19,18,12,14.90
2012,05,19,18,13,14.90
2012,05,19,18,14,15.00
2012,05,19,18,15,14.90
2012,05,19,18,16,14.90
2012,05,19,18,17,14.90
2012,05,19,18,18,14.80
2012,05,19,18,19,14.80
2012,05,19,18,20,14.90
2012,05,19,18,21,14.90
2012,05,19,18,22,14.90
2012,05,19,18,23,14.90
2012,05,19,18,24,14.90
2012,05,19,18,25,14.90
2012,05,19,18,26,14.90
2012,05,19,18,27,14.90
2012,05,19,18,28,14.90
2012,05,19,18,29,14.80
2012,05,19,18,30,14.80
2012,05,19,18,31,14.80
2012,05,19,18,32,14.80
2012,05,19,18,33,14.80
2012,05,19,18,34,14.80
2012,05,19,18,35,14.80
2012,05,19,18,36,14.80
2012,05,19,18,37,14.70
2012,05,19,18,38,14.70
2012,05,19,18,39,14.70
2012,05,19,18,40,14.60
2012,05,19,18,41,14.60
2012,05,19,18,42,14.70
2012,05,19,18,43,14.70
2012,05,19,18,44,14.70
2012,05,19,18,45,14.70
2012,05,19,18,46,14.70
2012,05,19,18,47,14.80
2012,05,19,18,48,14.80
2012,05,19,18,49,14.80
2012,05,19,18,50,14.90
2012,05,19,18,51,14.90
2012,05,19,18,52,14.90
2012,05,19,18,53,14.90
2012,05,19,18,54,14.90
2012,05,19,18,55,15.00
2012,05,19,18,56,15.00
2012,05,19,18,57,14.90
2012,05,19,18,58,14.90
2012,05,19,18,59,14.80
2012,05,19,19,00,14.80
2012,05,19,19,01,14.80
2012,05,19,19,02,14.80
2012,05,19,19,03,14.80
2012,05,19,19,04,14.80
2012,05,19,19,05,14.80
2012,05,19,19,06,14.80
2012,05,19,19,07,14.80
2012,05,19,19,08,14.80
2012,05,19,19,09,14.80
2012,05,19,19,10,14.80
2012,05,19,19,11,14.80
2012,05,19,19,12,14.80
2012,05,19,19,13,14.80
2012,05,19,19,14,14.80
2012,05,19,19,15,14.80
2012,05,19,19,16,14.80
2012,05,19,19,17,14.80
2012,05,19,19,18,14.90
2012,05,19,19,19,14.90
2012,05,19,19,20,14.90
2012,05,19,19,21,14.90
2012,05,19,19,22,15.00
2012,05,19,19,23,15.00
2012,05,19,19,24,15.00
2012,05,19,19,25,15.00
2012,05,19,19,26,15.00
2012,05,19,19,27,15.00
2012,05,19,19,28,15.00
2012,05,19,19,29,15.00
2012,05,19,19,30,15.00
2012,05,19,19,31,15.00
2012,05,19,19,32,15.00
2012,05,19,19,33,14.90
2012,05,19,19,34,15.00
2012,05,19,19,35,15.00
2012,05,19,19,36,15.00
2012,05,19,19,37,15.00
2012,05,19,19,38,15.00
2012,05,19,19,39,14.90
2012,05,19,19,40,14.90
2012,05,19,19,41,15.00
2012,05,19,19,42,15.00
2012,05,19,19,43,15.00
2012,05,19,19,44,15.00
2012,05,19,19,45,15.00
2012,05,19,19,46,15.00
2012,05,19,19,47,15.10
2012,05,19,19,48,15.10
2012,05,19,19,49,15.10
2012,05,19,19,50,15.10
2012,05,19,19,51,15.10
2012,05,19,19,52,15.10
2012,05,19,19,53,15.10
2012,05,19,19,54,15.10
2012,05,19,19,55,15.10
2012,05,19,19,56,15.10
2012,05,19,19,57,15.20
2012,05,19,19,58,15.20
2012,05,19,19,59,15.20
2012,05,19,20,00,15.20
2012,05,19,20,01,15.20
2012,05,19,20,02,15.20
2012,05,19,20,03,15.20
2012,05,19,20,04,15.30
2012,05,19,20,05,15.30
2012,05,19,20,06,15.30
2012,05,19,20,07,15.30
2012,05,19,20,08,15.30
2012,05,19,20,09,15.30
2012,05,19,20,10,15.30
2012,05,19,20,11,15.30
2012,05,19,20,12,15.30
2012,05,19,20,13,15.20
2012,05,19,20,14,15.20
2012,05,19,20,15,15.20
2012,05,19,20,16,15.10
2012,05,19,20,17,15.10
2012,05,19,20,18,15.10
2012,05,19,20,19,15.10
2012,05,19,20,20,15.10
2012,05,19,20,21,15.10
2012,05,19,20,22,15.10
2012,05,19,20,23,15.00
2012,05,19,20,24,15.00
2012,05,19,20,25,15.00
2012,05,19,20,26,15.00
2012,05,19,20,27,15.00
2012,05,19,20,28,15.00
2012,05,19,20,29,15.10
2012,05,19,20,30,15.10
2012,05,19,20,31,15.10
2012,05,19,20,32,15.10
2012,05,19,20,33,15.10
2012,05,19,20,34,15.10
2012,05,19,20,35,15.10
2012,05,19,20,36,15.10
2012,05,19,20,37,15.10
2012,05,19,20,38,15.20
2012,05,19,20,39,15.20
2012,05,19,20,40,15.20
2012,05,19,20,41,15.20
2012,05,19,20,42,15.20
2012,05,19,20,43,15.20
2012,05,19,20,44,15.20
2012,05,19,20,45,15.20
2012,05,19,20,46,15.20
2012,05,19,20,47,15.20
2012,05,19,20,48,15.20
2012,05,19,20,49,15.20
2012,05,19,20,50,15.20
2012,05,19,20,51,15.20
2012,05,19,20,52,15.20
2012,05,19,20,53,15.20
2012,05,19,20,54,15.20
2012,05,19,20,55,15.20
2012,05,19,20,56,15.20
2012,05,19,20,57,15.10
2012,05,19,20,58,15.10
2012,05,19,20,59,15.10
2012,05,19,21,00,15.10
2012,05,19,21,01,15.10
2012,05,19,21,02,15.00
2012,05,19,21,03,15.00
2012,05,19,21,04,15.00
2012,05,19,21,05,14.90
2012,05,19,21,06,14.90
2012,05,19,21,07,14.90
2012,05,19,21,08,14.80
2012,05,19,21,09,14.80
2012,05,19,21,10,14.80
2012,05,19,21,11,14.80
2012,05,19,21,12,14.70
2012,05,19,21,13,14.70
2012,05,19,21,14,14.70
2012,05,19,21,15,14.60
2012,05,19,21,16,14.50
2012,05,19,21,17,14.50
2012,05,19,21,18,14.40
2012,05,19,21,19,14.40
2012,05,19,21,20,14.40
2012,05,19,21,21,14.30
2012,05,19,21,22,14.20
2012,05,19,21,23,14.20
2012,05,19,21,24,14.20
2012,05,19,21,25,14.20
2012,05,19,21,26,14.10
2012,05,19,21,27,14.10